EW9824 Weather Reports


time (UTC)temp
C
wind
direction
speed
KPH
gust
KPH
rain 1hr
cm
rain 24hr
cm
rain mn
cm
humidity
%
barometer
mb
20260904093028 8 174 1.6 3.2 0.00 0.05 0.03 97 1013.8
20260904091530 8 179 0.0 3.2 0.00 0.05 0.03 97 1013.9
20260904090030 8 147 1.6 4.8 0.00 0.05 0.03 97 1013.8
20260904084532 8 163 3.2 6.4 0.00 0.05 0.03 97 1013.7
20260904083030 8 171 3.2 6.4 0.00 0.05 0.03 96 1013.7
20260904081605 8 161 0.0 6.4 0.00 0.05 0.03 96 1013.7
20260904080033 8 163 1.6 4.8 0.03 0.05 0.03 96 1013.8
20260904071531 8 177 0.0 6.4 0.03 0.05 0.00 96 1013.8
20260904070029 8 217 1.6 4.8 0.00 0.03 0.00 96 1013.7
20260904064526 8 200 1.6 4.8 0.00 0.03 0.03 95 1013.7
20260904063031 8 121 1.6 6.4 0.00 0.03 0.03 95 1013.6
20260904061531 8 155 0.0 3.2 0.00 0.03 0.03 95 1013.6
20260904054532 9 157 0.0 3.2 0.00 0.03 0.03 95 1013.6
20260904053032 9 132 1.6 4.8 0.00 0.03 0.03 95 1013.6
20260904051531 10 189 0.0 1.6 0.00 0.03 0.03 94 1013.7
20260904050030 10 252 0.0 3.2 0.00 0.03 0.03 94 1013.6
20260904044530 10 185 0.0 4.8 0.00 0.03 0.03 94 1013.7
20260904043031 10 202 0.0 1.6 0.00 0.03 0.03 93 1013.8
20260904041531 10 155 1.6 6.4 0.00 0.03 0.03 93 1014.0
20260904040030 10 210 1.6 6.4 0.00 0.03 0.03 92 1013.8
20260904033032 10 172 0.0 4.8 0.00 0.03 0.03 91 1013.5
20260904031528 10 184 3.2 8.0 0.00 0.05 0.03 90 1013.4
20260904024531 11 157 0.0 4.8 0.00 0.15 0.03 87 1013.3
20260904023029 11 154 3.2 4.8 0.00 0.23 0.03 85 1013.2
20260904020030 12 100 1.6 6.4 0.00 0.36 0.03 81 1013.0
20260904013031 12 338 8.0 17.7 0.00 0.41 0.03 80 1013.0
20260904011530 12 335 8.0 14.5 0.00 0.43 0.03 82 1012.9
20260904010033 12 335 6.4 16.1 0.00 0.48 0.03 82 1012.9
20260904004527 12 340 6.4 14.5 0.00 0.51 0.03 81 1012.8
20260904003032 13 337 6.4 12.9 0.00 0.53 0.03 77 1012.7
20260904001607 13 359 6.4 11.3 0.00 0.58 0.03 73 1012.8
20260904000031 13 14 4.8 9.7 0.00 0.64 0.03 74 1012.8
20260903234609 13 3 6.4 14.5 0.00 0.66 0.03 76 1012.9
20260903231531 14 322 8.0 19.3 0.00 0.66 0.03 69 1013.2
20260903230032 15 333 9.7 19.3 0.00 0.66 0.03 67 1013.1
20260903224607 15 327 8.0 17.7 0.00 0.69 0.03 65 1013.1
20260903221530 16 326 4.8 17.7 0.00 0.71 0.03 61 1012.9
20260903220033 16 313 4.8 11.3 0.00 0.71 0.03 62 1013.0
20260903214530 16 2 6.4 12.9 0.00 0.76 0.03 63 1013.0
20260903211532 16 318 6.4 12.9 0.00 0.81 0.03 65 1013.1
20260903204531 16 344 8.0 17.7 0.00 0.89 0.03 69 1013.2
20260903203030 16 348 8.0 17.7 0.00 0.91 0.03 71 1013.2
20260903201530 15 348 8.0 19.3 0.00 0.91 0.03 72 1013.3
20260903200104 16 349 9.7 22.5 0.00 0.91 0.03 70 1013.5
20260903193031 15 331 9.7 20.9 0.00 0.91 0.03 74 1013.6
20260903191531 15 334 9.7 19.3 0.00 0.91 0.03 75 1013.9
20260903184529 14 360 8.0 17.7 0.00 0.91 0.03 76 1014.2
20260903183029 14 356 6.4 12.9 0.00 0.91 0.03 76 1014.1
20260903181532 14 354 6.4 14.5 0.00 0.91 0.03 75 1014.2
20260903180032 13 351 6.4 14.5 0.00 0.91 0.03 76 1014.1
20260903174605 13 335 6.4 14.5 0.00 0.91 0.03 81 1014.1
20260903173102 12 336 6.4 14.5 0.00 0.91 0.03 89 1014.1
20260903171530 11 359 3.2 6.4 0.00 0.91 0.03 93 1014.2
20260903170031 10 6 3.2 8.0 0.00 0.91 0.03 95 1014.2
20260903164529 10 342 1.6 6.4 0.00 0.91 0.03 95 1014.3
20260903163031 10 342 1.6 6.4 0.00 0.91 0.03 96 1014.1
20260903161527 10 271 3.2 8.0 0.00 0.91 0.03 96 1014.2
20260903160038 10 99 1.6 4.8 0.00 0.91 0.03 97 1014.3
20260903154529 9 83 1.6 8.0 0.00 0.91 0.03 97 1014.3
20260903151529 8 69 8.0 22.5 0.00 0.91 0.03 98 1014.1
20260903150030 8 126 6.4 19.3 0.00 0.91 0.03 98 1014.3
20260903144530 8 222 3.2 12.9 0.00 0.91 0.03 98 1013.9
20260903143030 7 133 6.4 12.9 0.00 0.91 0.03 98 1013.8
20260903141529 7 171 3.2 11.3 0.00 0.91 0.03 98 1013.8
20260903140109 7 281 0.0 4.8 0.00 0.91 0.03 98 1013.7
20260903134531 7 210 1.6 8.0 0.00 0.91 0.03 98 1013.5
20260903133030 7 141 6.4 12.9 0.00 0.91 0.03 98 1013.4
20260903131530 6 195 3.2 8.0 0.00 0.91 0.03 98 1013.4
20260903130029 6 145 1.6 8.0 0.00 0.91 0.03 98 1013.3
20260903123145 6 165 3.2 6.4 0.00 0.91 0.03 98 1013.4
20260903121530 6 156 4.8 9.7 0.00 0.91 0.03 98 1013.3
20260903120031 6 12 4.8 8.0 0.03 0.91 0.03 98 1013.3
20260903114607 7 168 3.2 11.3 0.03 0.91 0.03 98 1013.4
20260903111531 6 152 3.2 12.9 0.03 0.91 0.00 97 1013.3
20260903110031 5 204 3.2 11.3 0.00 0.89 0.00 97 1013.0
20260903104532 6 53 1.6 4.8 0.00 0.89 0.00 97 1013.0
20260903103031 6 120 3.2 6.4 0.00 0.89 0.00 97 1012.9
20260903101530 6 196 1.6 6.4 0.00 0.89 0.00 97 1012.8
20260903100031 7 176 3.2 8.0 0.00 0.89 0.00 97 1012.9